User: anonymous   Login
Location: Unspecified
(0.0000°N, 0.0000°E)
Time: 05:05:35
(UTC+02:00)
Language:

Meteor 1-10 Rocket - Orbit

View from above orbital plane
View from above orbital plane
View from above satellite
View from above satellite

Ground track
Ground track

The orbit data is extracted from the following two-line orbital elements,

1 05732U 71120B   18174.28582298 -.00000111  00000-0 -75144-4 0  9993
2 05732  81.2517 124.6680 0053096  80.2211 280.4947 14.05960237391089
Epoch (UTC): 23 June 2018 06:51:35
Eccentricity: 0.0053096
inclination: 81.2517°
perigee height: 835 km
apogee height: 912 km
right ascension of ascending node: 124.6680°
argument of perigee: 80.2211°
revolutions per day: 14.05960237
mean anomaly at epoch: 280.4947°
orbit number at epoch: 39108

The dashed part of the orbit path shows where the satellite is in the earth's shadow,  

DLR